Regional Weather Roundup
Issued by NWS Bismarck, ND

Home | Current Version | Previous Version | Text Only | Print | Product List | Glossary On
Versions: 1 2 3 4 5 6 7 8 9 10 11 12 13 14 15 16 17 18 19 20 21 22 23 24 25 26 27 28 29 30 31 32 33 34 35 36 37 38 39 40 41 42 43 44 45 46 47 48 49 50
000
ASUS43 KBIS 301502
RWRBIS

NWR BROADCAST TEXT
NATIONAL WEATHER SERVICE BISMARCK ND
1000 AM CDT MON MAY 30 2016

NOTE: "FAIR" INDICATES FEW OR NO CLOUDS BELOW 12,000 FEET WITH NO
SIGNIFICANT WEATHER AND/OR OBSTRUCTIONS TO VISIBILITY.


CITY           SKY/WX    TMP DP  RH WIND       PRES   REMARKS
WILLISTON      CLOUDY    56  48  74 SW12      29.93R
MINOT          MOSUNNY   73  54  51 N5        29.88F
MINOT AFB      MOSUNNY   68  51  54 E5        29.88S
BISMARCK       SUNNY     68  55  63 CALM      29.90F
DICKINSON      CLOUDY    57  50  77 NW13      29.90R
GARRISON         N/A     65  51  60 S8        29.90S
HETTINGER ARPT CLOUDY    65  55  70 SE7       29.89F
JAMESTOWN      SUNNY     72  56  57 S10       29.90F
CARRINGTON     FAIR      75  52  43 W12       29.93S
HAZEN          FAIR      66  54  63 CALM      29.91F
OAKES            N/A    N/A N/A N/A MISG        N/A
STANLEY        FAIR      61  61 100 CALM      29.92S
$$

CITY           SKY/WX    TMP DP  RH WIND       PRES   REMARKS
GRAND FORKS    CLOUDY    68  54  60 SE5       29.92F
GRAND FORKS AF DRIZZLE   68  55  63 S13       29.90F
DEVILS LAKE    SUNNY     68  54  60 SW6       29.91S
FARGO          SUNNY     73  53  49 S9        29.92F
GRAFTON        FAIR      70  52  52 S9        29.92S
GWINNER        FAIR      72  57  60 SW9       29.94S
LANGDON        FAIR      72  48  43 SW9       29.92S
$$

CITY           SKY/WX    TMP DP  RH WIND       PRES   REMARKS
ABERDEEN       SUNNY     72  55  55 SW3       29.92F
MOBRIDGE       SUNNY     69  58  67 SE14      29.87F
BUFFALO          N/A     60  53  77 N8        29.84R
RAPID CITY     PTSUNNY   63  56  78 SE7       29.87S
GLASGOW        CLOUDY    60  50  69 CALM      29.92S
SIDNEY         RAIN      55  52  89 NW7       29.92F
WOLF POINT     LGT RAIN  58  51  78 W12       29.93R
GLENDIVE       CLOUDY    54  52  94 NE5       29.96F
MILES CITY     CLOUDY    59  50  72 NW12      29.96R
BAKER          TSTM      53  50  89 NW20      29.95R FOG
$$

CITY           SKY/WX    TMP DP  RH WIND       PRES   REMARKS
BILLINGS       PTSUNNY   60  49  66 SW10      30.01S
GREAT FALLS    CLOUDY    46  42  86 NW12      30.10R
$$




USA.gov is the U.S. government's official web portal to all federal, state and local government web resources and services.